Precipitable_Water
1.26 1.13 1.05 0.99 1.01 1.03 0.96 0.91 1.00 1.03 1.15 1.01 0.99 0.99 1.09 1.22 1.29 1.31 1.35 1.44 1.42 1.35 1.47 1.48 1.44 1.49 1.50 1.47 1.32 0.98 0.98 1.06 1.05 1.01 0.98 1.12 1.27 1.37 1.45 1.53 1.58 1.71 1.73 1.85
1.11 1.15 1.13 1.05 1.05 1.01 0.98 1.04 0.92 1.02 1.01 0.96 0.98 0.96 1.08 1.17 1.25 1.21 1.30 1.37 1.41 1.47 1.49 1.53 1.59 1.65 1.66 1.55 1.51 1.47 1.08 1.00 1.05 1.06 1.07 1.17 1.27 1.36 1.43 1.53 1.61 1.68 1.74 1.83
1.21 1.00 1.06 1.00 0.96 1.00 0.92 0.81 0.80 0.81 0.86 1.02 1.00 0.97 0.93 0.99 1.02 1.13 1.22 1.33 1.41 1.46 1.42 1.48 1.48 1.61 1.70 1.77 1.72 1.59 1.55 1.36 1.14 1.05 1.12 1.22 1.33 1.34 1.34 1.41 1.62 1.71 1.80 1.90
1.08 1.02 0.95 0.87 0.80 0.80 0.94 0.75 0.76 0.75 0.73 0.72 0.80 0.72 1.01 0.93 0.97 1.00 1.07 1.15 1.29 1.41 1.49 1.50 1.54 1.54 1.66 1.72 1.83 1.82 1.74 1.65 1.60 1.38 1.28 1.20 1.11 1.14 1.24 1.34 1.52 1.80 1.95 1.77
0.90 0.93 0.90 0.82 0.79 0.64 0.70 0.60 0.58 0.54 0.53 0.67 0.69 0.45 0.78 0.84 0.61 0.76 0.94 1.04 1.14 1.27 1.43 1.47 1.54 1.65 1.78 1.76 1.80 1.90 1.97 1.82 1.78 1.74 1.54 1.45 1.36 1.34 1.37 1.66 1.69 1.72 1.80 1.72
0.95 0.90 0.77 0.82 0.67 0.63 0.55 0.73 0.77 0.70 0.53 0.58 0.43 0.23 0.63 0.56 0.54 0.59 0.72 0.85 1.00 1.14 1.29 1.41 1.52 1.60 1.61 1.77 1.82 1.90 1.98 2.08 2.02 1.96 1.84 1.73 1.64 1.52 1.64 1.54 1.56 1.54 1.60 1.59
0.76 0.72 0.70 0.57 0.71 0.98 0.69 0.60 0.57 0.48 0.46 0.36 0.43 0.30 0.39 0.53 0.64 0.59 0.60 0.75 0.90 1.12 1.27 1.35 1.39 1.50 1.60 1.61 1.72 1.86 1.96 2.00 2.12 2.13 2.10 1.96 1.88 1.87 1.85 1.87 1.79 1.81 1.83 1.82
0.67 0.68 0.72 0.82 0.56 0.60 0.49 0.51 0.45 0.39 0.38 0.35 0.41 0.41 0.40 0.45 0.65 0.60 0.55 0.72 0.87 0.95 1.19 1.31 1.42 1.47 1.59 1.68 1.72 1.77 1.86 1.84 1.99 2.06 2.18 2.14 2.07 1.96 1.99 2.04 2.02 1.96 2.02 2.03
0.56 0.55 0.76 0.65 0.62 0.62 0.69 0.51 0.64 0.37 0.39 0.31 0.34 0.34 0.36 0.46 0.47 0.46 0.47 0.54 0.72 0.97 0.99 1.20 1.44 1.58 1.61 1.66 1.70 1.76 1.80 1.83 1.93 1.85 2.13 2.16 1.99 1.90 2.00 1.99 1.94 1.74 1.74 1.83
0.61 0.46 0.53 0.67 0.52 0.47 0.51 0.54 0.37 0.46 0.31 0.25 0.26 0.29 0.30 0.35 0.35 0.40 0.44 0.47 0.65 0.90 1.07 1.10 1.25 1.46 1.59 1.66 1.73 1.78 1.81 1.82 1.89 1.89 1.99 2.04 2.03 2.00 1.95 1.97 1.80 1.68 1.66 1.73
0.39 0.46 0.48 0.51 0.51 0.49 0.48 0.52 0.47 0.41 0.30 0.24 0.25 0.29 0.34 0.37 0.42 0.45 0.48 0.51 0.72 0.79 0.99 1.05 1.18 1.41 1.58 1.69 1.76 1.84 1.82 1.86 1.69 1.75 1.73 1.83 1.93 1.83 1.61 1.56 1.55 1.67 1.70 1.70
0.41 0.42 0.34 0.39 0.45 0.40 0.32 0.26 0.28 0.24 0.25 0.27 0.25 0.25 0.43 0.47 0.45 0.46 0.50 0.64 0.81 0.92 0.99 1.04 1.12 1.30 1.51 1.59 1.65 1.74 1.82 1.83 1.81 1.83 1.84 1.81 1.85 1.74 1.54 1.60 1.64 1.77 1.80 1.77
0.37 0.32 0.26 0.29 0.32 0.37 0.32 0.32 0.32 0.32 0.29 0.24 0.26 0.29 0.44 0.46 0.45 0.50 0.58 0.75 0.87 1.02 1.00 1.08 1.12 1.26 1.43 1.58 1.62 1.70 1.72 1.85 1.91 1.90 1.85 1.82 1.78 1.76 1.70 1.69 1.74 1.82 1.79 1.69
0.30 0.24 0.23 0.21 0.25 0.31 0.28 0.31 0.31 0.29 0.29 0.30 0.31 0.34 0.40 0.42 0.45 0.56 0.69 0.80 0.90 1.04 1.03 1.10 1.20 1.28 1.40 1.47 1.57 1.56 1.61 1.77 1.86 1.83 1.80 1.74 1.72 1.75 1.74 1.76 1.77 1.79 1.75 1.62
0.33 0.25 0.29 0.31 0.34 0.34 0.30 0.29 0.29 0.28 0.30 0.27 0.30 0.32 0.36 0.44 0.62 0.68 0.78 0.93 0.98 1.00 1.04 1.14 1.23 1.28 1.34 1.38 1.44 1.54 1.66 1.69 1.74 1.72 1.73 1.72 1.72 1.69 1.70 1.74 1.71 1.71 1.63 1.62
0.47 0.35 0.40 0.35 0.38 0.38 0.33 0.33 0.34 0.34 0.34 0.32 0.32 0.33 0.46 0.57 0.66 0.75 0.85 0.95 0.93 1.05 1.05 1.17 1.28 1.33 1.33 1.40 1.43 1.48 1.55 1.54 1.63 1.66 1.62 1.63 1.60 1.60 1.66 1.68 1.70 1.62 1.60 1.51
0.48 0.43 0.40 0.32 0.38 0.35 0.28 0.32 0.33 0.32 0.33 0.34 0.31 0.37 0.48 0.58 0.75 0.80 0.84 0.97 0.96 1.02 1.10 1.15 1.20 1.31 1.38 1.43 1.46 1.44 1.55 1.62 1.59 1.57 1.56 1.58 1.55 1.53 1.54 1.55 1.45 1.40 1.40 1.42
0.40 0.39 0.37 0.31 0.36 0.23 0.34 0.44 0.42 0.38 0.40 0.41 0.40 0.48 0.63 0.69 0.83 0.84 0.91 1.06 1.08 1.07 1.14 1.16 1.20 1.29 1.41 1.53 1.53 1.54 1.53 1.54 1.53 1.51 1.55 1.55 1.53 1.48 1.46 1.44 1.32 1.36 1.41 1.25
0.44 0.41 0.32 0.28 0.31 0.33 0.34 0.45 0.49 0.47 0.42 0.39 0.44 0.60 0.66 0.75 0.78 0.84 1.10 1.07 1.02 1.06 1.23 1.32 1.34 1.36 1.42 1.44 1.48 1.50 1.48 1.48 1.50 1.44 1.46 1.50 1.49 1.40 1.40 1.32 1.23 1.23 1.14 1.07
0.46 0.44 0.34 0.31 0.28 0.26 0.44 0.53 0.59 0.52 0.31 0.67 0.69 0.71 0.73 0.78 0.56 0.69 1.06 0.96 0.93 1.07 1.24 1.41 1.44 1.42 1.48 1.43 1.43 1.37 1.39 1.37 1.30 1.33 1.36 1.44 1.44 1.41 1.28 1.23 1.20 1.13 1.00 0.89
0.47 0.44 0.36 0.35 0.32 0.37 0.51 0.61 0.64 0.39 0.47 0.77 0.75 0.74 0.70 0.67 0.71 0.85 0.94 0.90 0.98 1.09 1.25 1.44 1.44 1.41 1.44 1.47 1.45 1.36 1.32 1.24 1.32 1.35 1.41 1.41 1.30 1.27 1.24 1.14 1.04 0.90 0.86 0.87
0.45 0.45 0.44 0.45 0.40 0.34 0.65 0.62 0.50 0.59 0.68 0.68 0.66 0.65 0.69 0.75 0.77 0.82 0.99 1.01 1.02 1.13 1.33 1.42 1.46 1.51 1.50 1.48 1.42 1.35 1.25 1.33 1.33 1.30 1.15 1.08 1.05 0.97 0.89 0.80 0.77 0.79 0.78 0.78
0.46 0.51 0.47 0.49 0.49 0.72 0.76 0.69 0.69 0.71 0.70 0.67 0.68 0.73 0.75 0.72 0.78 0.90 0.94 1.00 1.03 1.19 1.40 1.46 1.41 1.46 1.45 1.52 1.40 1.33 1.27 1.27 1.19 1.06 0.88 0.77 0.75 0.74 0.78 0.75 0.76 0.73 0.73 0.72
0.62 0.69 0.58 0.57 0.59 0.57 0.59 0.69 0.75 0.77 0.71 0.69 0.79 0.80 0.82 0.79 0.84 0.88 0.99 1.08 1.12 1.23 1.39 1.39 1.37 1.35 1.35 1.45 1.37 1.32 1.35 1.25 1.13 0.96 0.78 0.73 0.70 0.71 0.77 0.74 0.74 0.74 0.77 0.77
0.57 0.66 0.66 0.67 0.71 0.67 0.65 0.69 0.74 0.69 0.79 0.80 0.84 0.87 0.88 0.86 0.87 0.93 1.04 1.11 1.23 1.30 1.43 1.33 1.25 1.33 1.36 1.42 1.36 1.36 1.31 1.20 1.06 0.86 0.76 0.76 0.77 0.74 0.79 0.78 0.83 0.84 0.86 0.86
0.53 0.49 0.46 0.46 0.60 0.58 0.57 0.67 0.66 0.69 0.76 0.83 0.83 0.89 0.93 0.91 0.93 0.99 0.99 1.07 1.14 1.15 1.30 1.29 1.25 1.22 1.41 1.44 1.42 1.28 1.24 1.15 1.04 0.88 0.82 0.83 0.85 0.92 0.81 0.86 0.81 0.79 0.81 0.83
Wind_Speed
8 3 5 5 4 5 5 2 7 6 3 6 7 9 9 8 7 9 8 9 10 11 11 11 11 13 13 13 13 14 15 16 17 17 18 18 18 18 18 18 18 17 17 17
3 4 4 2 3 3 1 9 8 5 3 4 6 9 7 6 8 7 10 11 11 11 12 13 13 13 14 15 15 15 17 18 18 19 19 19 19 19 19 18 19 20 19 19
4 5 4 1 0 3 7 5 6 8 7 7 6 9 3 1 4 6 8 10 12 14 14 15 16 16 16 16 17 18 18 19 20 20 20 21 21 21 21 21 20 21 21 21
2 3 0 1 1 5 3 6 7 9 9 3 5 2 4 13 2 5 8 9 12 15 16 17 19 19 18 18 18 19 20 20 21 22 22 22 23 22 23 22 21 20 21 21
5 3 4 5 3 4 7 6 7 7 9 4 7 7 4 6 8 7 6 9 12 16 18 19 19 20 22 21 21 21 22 22 22 23 24 24 24 22 23 22 22 23 23 23
5 3 4 4 1 3 6 7 7 4 5 2 8 7 7 7 9 11 12 13 12 14 17 19 20 20 22 21 23 24 24 24 25 25 27 26 24 25 23 24 24 24 25 25
5 7 2 2 5 3 4 12 7 5 5 3 8 7 5 8 10 10 11 13 14 13 14 17 19 20 21 23 24 24 25 25 26 28 29 28 25 25 25 26 26 25 25 25
3 5 6 2 5 6 8 8 4 7 9 9 7 4 5 8 7 8 13 13 13 12 12 14 16 19 20 18 21 25 26 27 28 31 32 25 23 25 29 26 24 25 25 26
4 1 2 7 5 5 4 6 10 9 11 11 5 8 13 4 6 15 18 17 16 13 13 14 15 15 18 20 23 23 25 26 27 27 29 26 22 22 27 24 25 21 24 26
8 7 5 2 7 10 8 10 11 7 9 10 10 14 6 12 16 17 19 21 17 16 17 16 16 18 19 20 20 22 23 23 23 23 20 23 21 17 15 24 25 25 21 17
10 11 7 6 10 7 7 10 7 10 9 12 13 12 15 13 17 19 22 21 18 19 18 19 18 18 20 20 20 20 22 23 22 23 21 21 20 16 18 14 10 13 14 13
8 10 12 14 11 10 13 13 13 13 14 15 16 19 12 13 17 21 23 20 20 19 18 20 21 20 20 21 21 21 21 23 25 23 22 23 23 20 16 13 15 15 14 12
9 10 13 14 13 9 9 12 13 14 17 18 17 17 16 21 23 24 21 23 25 20 21 21 20 20 19 20 21 20 21 21 21 22 23 24 23 23 21 18 14 14 14 13
11 16 17 15 16 16 15 17 18 18 16 19 20 24 23 26 26 23 24 25 25 21 22 21 19 20 20 19 20 19 19 20 21 23 23 23 23 22 23 21 19 16 15 15
13 16 16 17 18 18 20 20 20 21 22 23 25 27 27 26 22 24 24 25 24 22 22 20 19 19 19 19 20 21 20 19 20 20 21 21 21 20 20 20 20 20 18 18
14 18 17 20 21 20 23 23 23 24 24 25 26 26 23 20 24 25 27 27 27 24 22 20 18 18 19 19 19 20 19 18 19 18 18 18 19 19 19 19 20 18 17 16
18 18 19 22 21 22 21 20 20 19 18 18 22 24 24 23 25 27 28 28 27 25 21 20 18 17 17 17 17 16 16 16 16 17 19 19 17 18 19 18 16 16 15 15
20 20 19 21 21 22 23 13 16 18 19 20 22 21 21 23 24 28 29 26 25 24 21 19 18 17 16 14 14 14 14 15 17 16 18 19 20 20 19 16 14 13 14 14
21 20 20 21 21 22 23 18 16 16 20 25 24 19 22 23 26 25 22 24 25 24 22 18 16 15 15 14 14 14 16 17 19 18 19 21 17 15 15 14 14 13 12 13
18 19 20 21 23 24 18 15 15 18 24 14 17 20 23 26 27 22 25 27 26 23 19 15 15 14 14 14 14 13 12 11 10 12 13 14 15 13 13 13 13 12 12 12
18 19 22 22 24 24 23 15 16 20 17 18 21 23 26 27 29 30 29 27 22 19 16 14 15 14 14 13 13 12 11 11 10 9 8 9 11 12 12 12 12 12 13 12
24 23 22 22 25 27 17 17 21 20 22 24 27 27 27 28 29 28 24 21 18 15 13 13 14 14 13 13 13 12 11 10 10 9 9 10 11 11 12 12 12 12 12 13
26 25 25 25 21 17 19 23 25 25 25 27 27 26 26 27 26 25 21 18 16 15 12 13 10 11 12 12 11 12 12 10 10 10 10 10 11 11 11 12 12 12 13 14
27 27 28 27 25 27 28 25 26 26 29 28 25 25 26 26 27 25 21 18 15 14 12 11 10 11 11 11 12 12 12 11 10 10 10 11 11 12 12 13 13 13 14 14
27 24 25 28 29 30 29 28 27 25 25 25 24 25 24 25 24 22 18 14 12 12 12 10 10 10 12 12 13 13 13 12 11 11 11 12 13 13 13 14 14 15 15 16
28 28 29 29 28 28 28 27 27 27 26 25 25 24 24 23 21 18 14 13 14 14 13 11 11 11 12 13 14 14 14 14 13 12 12 13 13 14 13 15 15 17 17 16
Wind_Direction
246 290 246 305 355 1 23 55 9 317 305 284 277 275 276 245 241 241 239 225 228 232 226 219 221 221 221 222 222 220 219 218 216 217 215 216 220 223 226 229 230 235 237 238
305 230 253 80 38 347 13 22 298 42 15 330 307 310 277 254 243 256 242 234 236 233 231 226 224 226 229 228 228 226 225 224 223 224 223 224 226 229 232 235 236 240 242 244
134 81 97 62 233 35 343 2 358 331 315 293 302 340 167 180 289 274 266 258 244 238 237 231 230 234 235 235 233 232 230 228 228 228 229 231 234 235 237 239 241 245 245 248
218 114 170 333 329 316 211 339 325 327 317 310 271 263 50 326 312 300 284 278 266 250 246 244 240 239 240 240 238 235 233 234 233 232 232 233 235 238 241 246 246 245 248 254
225 181 249 284 353 324 356 325 318 312 297 63 307 320 267 222 356 340 323 297 284 268 254 249 247 247 244 246 244 240 238 237 237 236 236 236 238 240 243 243 247 250 253 256
236 228 263 359 348 341 332 304 286 277 290 100 19 345 99 12 353 339 332 321 307 289 263 258 254 250 249 249 248 244 241 241 242 240 238 239 240 242 246 247 250 253 256 257
223 201 142 306 290 293 301 309 301 256 233 33 1 327 342 351 350 345 334 329 323 306 278 263 258 258 254 253 250 249 242 243 245 245 240 238 242 247 249 247 252 255 256 258
243 249 241 185 303 329 319 351 333 314 314 325 303 312 328 332 336 351 342 329 318 314 295 277 265 260 254 251 255 250 246 247 251 250 249 237 242 257 247 249 253 257 260 264
306 174 260 284 278 285 313 291 338 309 282 298 306 330 313 323 294 334 334 327 324 307 305 294 274 270 264 264 262 253 247 253 252 257 241 238 250 265 240 252 258 271 266 266
284 291 285 167 295 271 273 309 304 280 297 301 313 314 311 325 321 324 323 321 317 308 294 290 284 273 268 266 262 255 249 250 248 254 248 236 244 243 257 261 261 264 265 267
278 278 269 272 268 281 283 272 267 277 304 298 297 307 321 325 319 315 318 320 319 310 295 288 282 278 269 265 263 259 253 248 247 245 246 246 232 248 266 272 264 265 260 261
284 284 285 284 280 268 292 286 288 290 295 294 302 306 316 312 318 316 315 321 318 312 303 292 281 276 268 262 260 256 255 251 250 244 243 240 239 255 265 275 271 269 263 262
280 266 280 278 268 252 274 284 282 289 294 289 291 295 308 315 316 314 315 317 314 303 302 297 281 273 270 263 260 256 255 252 245 243 245 245 252 252 255 265 276 271 259 257
269 270 272 276 289 293 289 289 289 288 286 293 293 300 305 309 311 314 314 314 312 305 302 293 283 272 268 264 260 259 254 250 246 248 247 248 252 253 254 260 270 267 261 259
262 267 275 279 284 283 286 285 287 286 288 289 298 299 305 309 311 309 312 315 309 304 303 293 282 272 268 264 260 257 253 247 248 246 245 250 249 252 256 260 264 265 264 262
265 268 273 278 280 281 282 282 283 284 285 288 293 296 302 311 314 314 313 313 308 301 299 291 283 273 267 264 261 260 255 248 247 243 241 243 251 255 258 261 265 261 255 251
273 278 281 280 287 289 285 283 285 292 293 298 301 306 308 310 312 311 308 309 307 305 295 287 281 276 269 263 257 254 252 249 243 244 245 246 245 256 261 260 259 251 247 245
268 269 273 278 284 278 287 294 293 292 296 297 304 309 311 311 312 311 305 309 308 304 294 288 278 272 266 261 254 250 249 246 247 248 247 249 253 263 255 243 246 244 240 236
264 269 273 271 271 281 286 291 298 304 299 302 299 306 306 312 313 312 315 312 309 304 297 281 276 269 263 258 255 254 253 257 253 247 254 253 251 241 238 236 235 235 235 231
268 264 266 270 274 279 289 295 294 298 298 307 310 309 311 313 310 315 312 309 307 303 292 277 273 266 259 255 253 252 251 250 246 242 243 239 235 226 230 227 228 232 233 232
266 264 266 269 272 277 285 281 289 291 299 302 305 307 310 310 311 309 308 304 303 300 288 277 272 261 254 249 242 245 246 239 237 238 237 219 225 225 224 227 230 231 232 238
271 269 268 268 273 275 286 284 281 294 297 299 301 303 305 310 311 309 309 304 302 299 288 281 272 257 248 240 241 238 234 229 230 230 232 231 228 230 229 227 227 232 237 244
266 264 273 275 281 280 282 282 286 291 294 296 297 299 305 309 311 309 306 304 295 292 282 290 265 245 236 234 231 227 226 228 231 235 239 235 229 229 226 226 231 238 244 251
269 269 269 273 274 277 281 285 287 289 292 294 293 298 302 306 308 302 298 296 290 282 273 273 255 237 233 230 229 224 224 227 235 239 237 233 231 228 230 234 240 246 251 253
273 276 276 274 275 276 278 281 286 288 291 290 290 293 299 305 306 302 290 286 286 282 271 255 246 234 235 233 230 227 227 231 235 237 236 234 232 233 237 243 246 251 257 260
271 273 273 275 277 279 282 282 285 286 287 285 289 291 296 300 300 297 285 274 281 274 254 247 246 244 241 237 232 230 231 232 235 239 240 239 240 237 247 249 257 258 260 265